Terminal Aerodrome Forecast
Issued by NWS St Louis, MO

Home | Current Version | Previous Version | Text Only | Print | Product List | Glossary On
Versions: 1 2 3 4 5 6 7 8 9 10 11 12 13 14 15 16 17 18 19 20 21 22 23 24 25
000
FTUS43 KLSX 201351 AAA
TAFSTL
TAF AMD
KSTL 201351Z 2014/2118 00000KT P6SM SKC
     FM201500 31012KT P6SM SCT040 OVC100
     FM201700 VRB03KT P6SM BKN100=

USA.gov is the U.S. government's official web portal to all federal, state and local government web resources and services.